Location: Brusselsch Zeekanaal
(50.8667°N, 4.3667°E)
Time: 09:24:24
(UTC+00:00)

Cosmos 304 Rocket - Pass Details

Date: 08 November 2025
Orbit: 668 x 677 km, 74.0° (Epoch: 11 December)

Event Time Altitude Azimuth Distance (km) Brightness Sun altitude
Exits shadow 05:12:22 - 339° (NNW) 2,779 6.6 -15.0°
Reaches altitude 10° 05:14:04 10° 343° (NNW) 2,120 6.0 -14.7°
Maximum altitude 05:18:45 54° 61° (ENE) 823 4.5 -14.0°
Drops below altitude 10° 05:23:24 10° 139° (SE) 2,111 7.1 -13.3°
Sets 05:25:44 0° 144° (SE) 3,022 7.9 -12.9°
